Date String (YYYY-MM-DD hh:mm:ss) UTC,Instrument flags,absolute air pressure of the measurement (hPa),sample flow rate (lpm),inlet stack bypass flow (lpm),air temperature of the measurement (°C),ambient temperature measured by the external sensor (°C),aerosol sample conditioner tube jacket temperature (°C),OPC LED temperature (°C),internal box temperature (°C),relative humidity of the measurement (%),span deviation,mass concentration of particles derived from Lorenz-Mie calculation of OPC scattering (μg/m³),mass concentration of particles derived from Lorenz-Mie calculation of OPC scattering (μg/m³),mass concentration of particles derived from Lorenz-Mie calculation of OPC scattering (μg/m³)
DateTimeUTC,F1_M11,P_M11,Q1_M11,Q2_M11,T1_M11,T2_M11,T3_M11,T4_M11,T5_M11,U1_M11,ZSPAN_M11,X0_M11,X2_M11,X1_M11
2023-11-11 07:00:00,SystemResetWarning,0831.2,5.01,000.00,023.5,022.4,000.0,031.9,024.9,7.6,0000.0,0006.13,0003.23,0002.49
2023-11-11 07:01:00,SystemResetWarning,0831.3,5.00,000.00,023.5,022.4,000.0,031.8,024.9,7.7,0000.0,0005.92,0003.24,0002.50
2023-11-11 07:02:00,SystemResetWarning,0831.2,5.01,000.00,023.4,022.4,000.0,031.8,024.9,8.1,0000.0,0005.45,0003.24,0002.52
2023-11-11 07:03:00,SystemResetWarning,0831.2,5.00,000.00,023.4,022.4,000.0,031.8,024.9,8.4,0000.0,0005.23,0003.21,0002.52
2023-11-11 07:04:00,SystemResetWarning,0831.2,4.99,000.00,023.5,022.4,000.0,031.8,024.9,8.7,0000.0,0005.08,0003.17,0002.52
2023-11-11 07:05:00,SystemResetWarning,0831.2,4.99,000.00,023.5,022.5,000.0,031.8,024.9,8.6,0000.0,0005.09,0003.18,0002.53
2023-11-11 07:06:00,SystemResetWarning,0831.3,5.00,000.00,023.5,022.5,000.0,031.8,024.9,8.4,0000.0,0005.44,0003.25,0002.58
2023-11-11 07:07:00,SystemResetWarning,0831.3,5.00,000.00,023.5,022.5,000.0,031.8,025.0,8.6,0000.0,0005.45,0003.30,0002.65
2023-11-11 07:08:00,SystemResetWarning,0831.3,5.02,000.00,023.5,022.5,000.0,031.8,024.9,8.3,0000.0,0005.42,0003.34,0002.69
2023-11-11 07:09:00,SystemResetWarning,0831.2,4.99,000.00,023.5,022.5,000.0,031.8,024.9,8.1,0000.0,0005.68,0003.38,0002.71
2023-11-11 07:10:00,SystemResetWarning,0831.2,4.99,000.00,023.5,022.5,000.0,031.8,024.9,8.0,0000.0,0005.92,0003.42,0002.73
2023-11-11 07:11:00,SystemResetWarning,0831.2,4.99,000.00,023.5,022.5,000.0,031.8,024.9,7.9,0000.0,0005.93,0003.44,0002.77
2023-11-11 07:12:00,SystemResetWarning,0831.2,5.01,000.00,023.5,022.5,000.0,031.8,024.9,8.0,0000.0,0005.92,0003.42,0002.79
2023-11-11 07:13:00,SystemResetWarning,0831.2,5.01,000.00,023.5,022.5,000.0,031.8,024.9,7.9,0000.0,0006.29,0003.42,0002.79
2023-11-11 07:14:00,SystemResetWarning,0831.2,5.01,000.00,023.5,022.5,000.0,031.8,024.9,7.9,0000.0,0006.34,0003.44,0002.80
2023-11-11 07:15:00,SystemResetWarning,0831.2,4.98,000.00,023.5,022.5,000.0,031.8,024.9,8.0,0000.0,0006.40,0003.46,0002.82
2023-11-11 07:16:00,SystemResetWarning,0831.3,5.00,000.00,023.5,022.5,000.0,031.8,024.9,8.0,0000.0,0006.57,0003.47,0002.84
2023-11-11 07:17:00,SystemResetWarning,0831.2,5.02,000.00,023.5,022.5,000.0,031.8,024.9,8.2,0000.0,0006.57,0003.45,0002.85
2023-11-11 07:18:00,SystemResetWarning,0831.2,4.99,000.00,023.5,022.5,000.0,031.8,024.9,8.1,0000.0,0006.46,0003.42,0002.80
2023-11-11 07:19:00,SystemResetWarning,0831.2,4.99,000.00,023.4,022.4,000.0,031.8,024.9,8.0,0000.0,0007.10,0003.40,0002.77
2023-11-11 07:20:00,SystemResetWarning,0831.2,5.00,000.00,023.4,022.4,000.0,031.8,024.9,8.1,0000.0,0007.56,0003.40,0002.78
2023-11-11 07:21:00,SystemResetWarning,0831.2,4.99,000.00,023.4,022.4,000.0,031.8,024.8,8.3,0000.0,0007.42,0003.37,0002.77
2023-11-11 07:22:00,SystemResetWarning,0831.2,5.00,000.00,023.4,022.4,000.0,031.8,024.8,8.0,0000.0,0007.45,0003.39,0002.77
2023-11-11 07:23:00,SystemResetWarning,0831.2,5.01,000.00,023.4,022.4,000.0,031.8,024.8,7.8,0000.0,0007.26,0003.38,0002.77
2023-11-11 07:24:00,SystemResetWarning,0831.2,5.00,000.00,023.4,022.4,000.0,031.8,024.9,7.9,0000.0,0006.80,0003.36,0002.78
2023-11-11 07:25:00,SystemResetWarning,0831.2,5.00,000.00,023.4,022.4,000.0,031.8,024.9,7.9,0000.0,0006.78,0003.36,0002.82
2023-11-11 07:26:00,SystemResetWarning,0831.2,4.99,000.00,023.4,022.4,000.0,031.8,024.8,7.8,0000.0,0006.85,0003.36,0002.83
2023-11-11 07:27:00,SystemResetWarning,0831.2,4.99,000.00,023.4,022.4,000.0,031.8,024.8,7.8,0000.0,0006.72,0003.36,0002.85
2023-11-11 07:28:00,SystemResetWarning,0831.2,5.01,000.00,023.4,022.4,000.0,031.8,024.8,7.7,0000.0,0006.73,0003.40,0002.86
2023-11-11 07:29:00,SystemResetWarning,0831.2,5.02,000.00,023.4,022.4,000.0,031.8,024.8,7.7,0000.0,0006.94,0003.43,0002.89
2023-11-11 07:30:00,SystemResetWarning,0831.2,5.00,000.00,023.4,022.4,000.0,031.8,024.8,7.7,0000.0,0006.26,0003.44,0002.91
2023-11-11 07:31:00,SystemResetWarning,0831.2,4.99,000.00,023.4,022.4,000.0,031.8,024.9,7.7,0000.0,0005.59,0003.43,0002.91
2023-11-11 07:32:00,SystemResetWarning,0831.2,5.00,000.00,023.4,022.4,000.0,031.8,024.9,7.7,0000.0,0005.75,0003.45,0002.92
2023-11-11 07:33:00,SystemResetWarning,0831.2,5.00,000.00,023.4,022.5,000.0,031.8,024.9,7.6,0000.0,0005.77,0003.45,0002.92
2023-11-11 07:34:00,SystemResetWarning,0831.2,5.01,000.00,023.4,022.4,000.0,031.8,024.9,7.6,0000.0,0006.40,0003.46,0002.92
2023-11-11 07:35:00,SystemResetWarning,0831.2,5.00,000.00,023.4,022.4,000.0,031.8,024.9,7.6,0000.0,0006.53,0003.48,0002.93
2023-11-11 07:36:00,SystemResetWarning,0831.2,4.99,000.00,023.4,022.4,000.0,031.8,024.9,7.7,0000.0,0006.71,0003.48,0002.91
2023-11-11 07:37:00,SystemResetWarning,0831.2,4.99,000.00,023.4,022.4,000.0,031.8,024.9,7.8,0000.0,0006.82,0003.49,0002.92
2023-11-11 07:38:00,SystemResetWarning,0831.2,5.01,000.00,023.4,022.4,000.0,031.8,024.9,7.9,0000.0,0006.91,0003.49,0002.90
2023-11-11 07:39:00,SystemResetWarning,0831.2,5.02,000.00,023.4,022.4,000.0,031.8,024.8,7.9,0000.0,0006.83,0003.43,0002.87
2023-11-11 07:40:00,SystemResetWarning,0831.2,4.99,000.00,023.4,022.4,000.0,031.8,024.8,7.8,0000.0,0006.76,0003.43,0002.87
2023-11-11 07:41:00,SystemResetWarning,0831.2,4.99,000.00,023.4,022.4,000.0,031.8,024.8,7.9,0000.0,0007.02,0003.43,0002.85
2023-11-11 07:42:00,SystemResetWarning,0831.2,5.00,000.00,023.4,022.4,000.0,031.8,024.8,7.9,0000.0,0007.02,0003.43,0002.85
2023-11-11 07:43:00,SystemResetWarning,0831.2,5.00,000.00,023.4,022.4,000.0,031.8,024.8,7.8,0000.0,0007.01,0003.44,0002.85
2023-11-11 07:44:00,SystemResetWarning,0831.2,5.00,000.00,023.4,022.4,000.0,031.8,024.8,7.8,0000.0,0007.04,0003.42,0002.85
2023-11-11 07:45:00,SystemResetWarning,0831.2,5.01,000.00,023.4,022.4,000.0,031.8,024.8,7.8,0000.0,0006.60,0003.42,0002.84
2023-11-11 07:46:00,SystemResetWarning,0831.2,5.00,000.00,023.4,022.4,000.0,031.8,024.8,7.9,0000.0,0006.66,0003.45,0002.86
2023-11-11 07:47:00,SystemResetWarning,0831.2,5.00,000.00,023.4,022.4,000.0,031.8,024.8,8.0,0000.0,0006.80,0003.47,0002.88
2023-11-11 07:48:00,SystemResetWarning,0831.2,5.00,000.00,023.4,022.4,000.0,031.8,024.8,8.0,0000.0,0007.64,0003.47,0002.87
2023-11-11 07:49:00,SystemResetWarning,0831.1,5.00,000.00,023.4,022.4,000.0,031.8,024.8,7.9,0000.0,0008.49,0003.47,0002.87
2023-11-11 07:50:00,SystemResetWarning,0831.1,5.00,000.00,023.4,022.4,000.0,031.8,024.8,8.0,0000.0,0008.47,0003.50,0002.88
2023-11-11 07:51:00,SystemResetWarning,0831.1,5.00,000.00,023.4,022.3,000.0,031.8,024.8,7.9,0000.0,0008.50,0003.49,0002.87
2023-11-11 07:52:00,SystemResetWarning,0831.1,5.00,000.00,023.4,022.3,000.0,031.8,024.8,7.8,0000.0,0008.38,0003.49,0002.86
2023-11-11 07:53:00,SystemResetWarning,0831.1,5.00,000.00,023.4,022.3,000.0,031.8,024.8,7.6,0000.0,0008.31,0003.48,0002.84
2023-11-11 07:54:00,SystemResetWarning,0831.2,5.00,000.00,023.4,022.3,000.0,031.8,024.8,7.7,0000.0,0008.27,0003.45,0002.82
2023-11-11 07:55:00,SystemResetWarning,0831.1,5.00,000.00,023.4,022.3,000.0,031.8,024.8,7.8,0000.0,0008.26,0003.45,0002.80
2023-11-11 07:56:00,SystemResetWarning,0831.2,4.99,000.00,023.4,022.3,000.0,031.8,024.7,7.6,0000.0,0008.21,0003.41,0002.77
2023-11-11 07:57:00,SystemResetWarning,0831.2,4.99,000.00,023.4,022.3,000.0,031.8,024.7,7.5,0000.0,0008.17,0003.38,0002.73
2023-11-11 07:58:00,SystemResetWarning,0831.1,5.00,000.00,023.4,022.3,000.0,031.8,024.8,7.3,0000.0,0007.93,0003.31,0002.70
2023-11-11 07:59:00,SystemResetWarning,0831.2,5.00,000.00,023.3,022.2,000.0,031.7,024.7,7.3,0000.0,0006.82,0003.31,0002.66
